Home   Weather   Adama   Past weeks

Flag for Ethiopia Past Weather in Adama, Ethiopia — Yesterday and Last 2 Weeks

Now
73 °F

Smoke.


Feels Like: 74 °F
Forecast: 50 / 82 °F
Wind: 14 mph from East

Location: Addis Ababa Airport

Current Time: Jan 17, 2017 at 4:28:31 pm

Latest Report: Jan 17, 2017 at 4:00 pm


Visibility: N/A

Pressure: 30.24 "Hg (25.08 "Hg at 1621m altitude)

Humidity: 14%

Dew Point: 21 °F

Location of AdamaLocation

Past Weather in Adama — Graph

°F

Adama Temperature Yesterday

Maximum temperature yesterday: 75 °F (at 3:00 pm)
Minimum temperature yesterday: 48 °F (at 4:00 am)
Average temperature yesterday: 65 °F

High & Low Weather Summary for the Past Weeks

 TemperatureHumidityPressure
High75 °F (Jan 14, 2:00 pm)94% (Jan 8, 11:00 pm)30.42 "Hg (Jan 8, 11:00 pm)
Low39 °F (Jan 6, 6:00 am)5% (Jan 8, 11:00 am)30.21 "Hg (Jan 13, 4:00 pm)
Average58 °F26%30.33 "Hg
* Reported Jan 2 4:00 pm — Jan 17 3:00 pm, Adama, Weather by CustomWeather, © 2017

Note: Actual official high and low records may vary slightly from our data, if they occured in-between our weather recording intervals... More about our weather records

Advertising

Adama Weather History for the Previous 24 Hours

Scroll right to see more
 ConditionsComfort  
Time TempWeatherWind HumidityBarometerVisibility
3:00 pm
Tue, Jan 17
73 °FSmoke.12 mph15%30.24 "HgN/A
2:00 pm73 °FSmoke.12 mph14%30.24 "HgN/A
1:00 pm72 °FSmoke.7 mph17%30.30 "HgN/A
11:00 am68 °FSmoke.16 mph23%30.33 "HgN/A
10:00 am64 °FSmoke.16 mph24%30.36 "HgN/A
9:00 am61 °FSmoke.14 mph23%30.36 "HgN/A
8:00 am55 °FSmoke.7 mph28%30.33 "HgN/A
7:00 am48 °FSmoke.3 mph32%30.33 "HgN/A
6:00 am43 °FSmoke.5 mph39%30.30 "HgN/A
5:00 am46 °FSmoke.No wind34%30.30 "HgN/A
4:00 am46 °FSmoke.3 mph34%30.30 "HgN/A
3:00 am52 °FSmoke.7 mph30%30.30 "HgN/A
10:00 pm
Mon, Jan 16
57 °FSmoke.12 mph29%30.36 "HgN/A
7:00 pm63 °FSmoke.16 mph20%30.30 "HgN/A
6:00 pm68 °FSmoke.16 mph17%30.30 "HgN/A
5:00 pm72 °FSmoke.12 mph15%30.27 "HgN/A
4:00 pm73 °FSmoke.12 mph13%30.27 "HgN/A
Weather by CustomWeather, © 2017

See weather overviewHow to use our weather pages